Weather History for Storm Lake, IA

Change the Weather History Date:

Sunday, December 22, 2013

  Actual Average Record
Temperature  
Mean Temperature 8 °F -  
Max Temperature 15 °F 27 °F 44 °F (2005)
Min Temperature 0 °F 11 °F -11 °F (2000)
Degree Days  
Heating Degree Days 58    
Moisture  
Dew Point 5 °F    
Average Humidity 81    
Maximum Humidity 100    
Minimum Humidity 72    
Precipitation  
Precipitation 0.00 in - - ()
Sea Level Pressure  
Sea Level Pressure 30.05 in    
Wind  
Wind Speed 19 mph (NNW)    
Max Wind Speed 25 mph    
Max Gust Speed 31 mph    
Visibility 10 miles    
Events Snow    
Averages and records for this station are not official NWS values.
T = Trace of Precipitation, MM = Missing Value Source: NWS Daily Summary

Daily Weather History Graph

Daily Weather History Graph

Search for Another Location

Airport:

Trip Planner

Search our weather history database for the weather conditions in past years. The results will help you decide how hot, cold, wet, or windy it might be!

Date:

Astronomy

Dec. 22, 2013 Rise Set
Actual Time 7:48 AM CST 4:51 PM CST
Civil Twilight 7:16 AM CST 5:23 PM CST
Nautical Twilight 6:40 AM CST 5:59 PM CST
Astronomical Twilight 6:06 AM CST 6:33 PM CST
Moon 10:11 PM CST (12/22) 10:39 AM CST (12/22)
Length of Visible Light 10h 07m
Length of Day
9h 03m
Waning Gibbous, 76% of the Moon is Illuminated
Dec 22
Waning Gibbous
Dec 25
Last Quarter
Jan 1
New
Jan 7
First Quarter
Jan 15
Full

Hourly Weather History & Observations

Time (CST) Temp. Windchill Dew Point Humidity Pressure Visibility Wind Dir Wind Speed Gust Speed Precip Events Conditions
12:15 AM 15.8 °F -1.5 °F 15.8 °F 100% 29.84 in 6.0 mi North 20.7 mph 29.9 mph N/A Snow Light Snow
12:35 AM 15.8 °F 0.3 °F 15.8 °F 100% 29.84 in 6.0 mi North 16.1 mph - N/A Snow Light Snow
12:55 AM 15.8 °F -2.3 °F 14.0 °F 93% 29.84 in 7.0 mi North 23.0 mph 28.8 mph N/A Snow Light Snow
1:15 AM 15.8 °F -1.9 °F 14.0 °F 93% 29.85 in 7.0 mi North 21.9 mph 28.8 mph N/A Snow Light Snow
1:35 AM 14.0 °F -4.3 °F 12.2 °F 93% 29.86 in 8.0 mi North 21.9 mph 31.1 mph N/A Snow Light Snow
1:55 AM 14.0 °F -5.5 °F 12.2 °F 93% 29.86 in 9.0 mi North 25.3 mph - N/A Snow Light Snow
2:15 AM 14.0 °F -4.3 °F 12.2 °F 93% 29.87 in 10.0 mi North 21.9 mph 29.9 mph N/A Snow Light Snow
2:35 AM 14.0 °F -3.9 °F 12.2 °F 93% 29.88 in 10.0 mi North 20.7 mph - N/A Snow Light Snow
2:55 AM 14.0 °F -3.9 °F 10.4 °F 86% 29.88 in 10.0 mi North 20.7 mph - N/A Snow Light Snow
3:15 AM 14.0 °F -4.7 °F 10.4 °F 86% 29.88 in 10.0 mi North 23.0 mph - N/A Snow Light Snow
3:35 AM 12.2 °F -7.9 °F 10.4 °F 92% 29.88 in 10.0 mi North 25.3 mph - N/A Snow Light Snow
3:55 AM 12.2 °F -7.1 °F 10.4 °F 92% 29.89 in 10.0 mi North 23.0 mph 29.9 mph N/A Snow Light Snow
4:15 AM 12.2 °F -6.3 °F 10.4 °F 92% 29.90 in 10.0 mi North 20.7 mph 29.9 mph N/A Snow Light Snow
4:35 AM 12.2 °F -6.7 °F 10.4 °F 92% 29.91 in 10.0 mi NNW 21.9 mph 28.8 mph N/A Snow Light Snow
4:55 AM 12.2 °F -7.5 °F 10.4 °F 92% 29.92 in 10.0 mi North 24.2 mph - N/A Snow Light Snow
5:15 AM 12.2 °F -4.8 °F 10.4 °F 92% 29.92 in 10.0 mi North 17.3 mph 25.3 mph N/A   Overcast
5:35 AM 12.2 °F -6.7 °F 10.4 °F 92% 29.92 in 10.0 mi North 21.9 mph - N/A   Overcast
5:55 AM 12.2 °F -7.1 °F 8.6 °F 85% 29.93 in 10.0 mi North 23.0 mph - N/A   Overcast
6:15 AM 12.2 °F -5.8 °F 8.6 °F 85% 29.94 in 10.0 mi North 19.6 mph - N/A   Overcast
6:35 AM 12.2 °F -5.3 °F 8.6 °F 85% 29.94 in 10.0 mi NNW 18.4 mph 24.2 mph N/A   Overcast
6:55 AM 12.2 °F -5.3 °F 8.6 °F 85% 29.95 in 10.0 mi North 18.4 mph 24.2 mph N/A   Overcast
7:15 AM 12.2 °F -6.3 °F 8.6 °F 85% 29.95 in 10.0 mi NNW 20.7 mph - N/A   Overcast
7:35 AM 12.2 °F -6.7 °F 8.6 °F 85% 29.96 in 10.0 mi NNW 21.9 mph - N/A   Overcast
7:55 AM 12.2 °F -5.8 °F 6.8 °F 79% 29.97 in 10.0 mi NNW 19.6 mph - N/A   Overcast
8:15 AM 10.4 °F -6.0 °F 6.8 °F 85% 29.98 in 10.0 mi NNW 15.0 mph - N/A   Scattered Clouds
8:35 AM 10.4 °F -7.2 °F 6.8 °F 85% 30.00 in 10.0 mi NW 17.3 mph - N/A   Mostly Cloudy
8:55 AM 8.6 °F -8.3 °F 5.0 °F 85% 30.00 in 10.0 mi NNW 15.0 mph - N/A   Scattered Clouds
9:15 AM 10.4 °F -6.0 °F 6.8 °F 85% 30.00 in 10.0 mi NNW 15.0 mph - N/A   Partly Cloudy
9:35 AM 10.4 °F -6.6 °F 6.8 °F 85% 30.02 in 9.0 mi NNW 16.1 mph 23.0 mph N/A   Clear
9:55 AM 10.4 °F -6.6 °F 6.8 °F 85% 30.03 in 10.0 mi NNW 16.1 mph - N/A   Clear
10:15 AM 10.4 °F -7.2 °F 5.0 °F 79% 30.03 in 10.0 mi NNW 17.3 mph - N/A   Partly Cloudy
10:35 AM 12.2 °F -4.8 °F 5.0 °F 73% 30.04 in 10.0 mi NW 17.3 mph - N/A   Clear
10:55 AM 12.2 °F -4.8 °F 5.0 °F 73% 30.04 in 10.0 mi NNW 17.3 mph - N/A   Clear
11:15 AM 12.2 °F -4.3 °F 6.8 °F 79% 30.04 in 10.0 mi NNW 16.1 mph 21.9 mph N/A   Clear
11:35 AM 12.2 °F -5.3 °F 6.8 °F 79% 30.04 in 10.0 mi NNW 18.4 mph - N/A   Partly Cloudy
11:55 AM 14.0 °F -3.0 °F 6.8 °F 73% 30.04 in 10.0 mi NW 18.4 mph - N/A   Scattered Clouds
12:15 PM 14.0 °F -1.4 °F 6.8 °F 73% 30.05 in 10.0 mi NW 15.0 mph 21.9 mph N/A   Scattered Clouds
12:35 PM 14.0 °F -3.4 °F 6.8 °F 73% 30.04 in 10.0 mi NW 19.6 mph - N/A   Scattered Clouds
12:55 PM 14.0 °F -2.5 °F 6.8 °F 73% 30.04 in 10.0 mi NNW 17.3 mph 23.0 mph N/A   Mostly Cloudy
1:15 PM 14.0 °F -3.4 °F 6.8 °F 73% 30.04 in 10.0 mi NW 19.6 mph - N/A Snow Light Snow
1:35 PM 14.0 °F -3.0 °F 6.8 °F 73% 30.05 in 10.0 mi NW 18.4 mph - N/A Snow Light Snow
1:55 PM 14.0 °F -3.0 °F 6.8 °F 73% 30.06 in 10.0 mi NW 18.4 mph - N/A Snow Light Snow
2:15 PM 14.0 °F -0.8 °F 6.8 °F 73% 30.07 in 10.0 mi NW 13.8 mph 21.9 mph N/A Snow Light Snow
2:35 PM 12.2 °F -4.8 °F 5.0 °F 73% 30.07 in 10.0 mi NW 17.3 mph - N/A   Mostly Cloudy
2:55 PM 12.2 °F -3.7 °F 5.0 °F 73% 30.08 in 10.0 mi NW 15.0 mph 20.7 mph N/A   Overcast
3:15 PM 12.2 °F -3.7 °F 5.0 °F 73% 30.09 in 10.0 mi NW 15.0 mph 21.9 mph N/A   Light Freezing Rain
3:35 PM 12.2 °F -3.7 °F 5.0 °F 73% 30.10 in 10.0 mi NW 15.0 mph 20.7 mph N/A   Light Freezing Rain
3:55 PM 12.2 °F -3.1 °F 5.0 °F 73% 30.12 in 10.0 mi NW 13.8 mph 20.7 mph N/A   Light Freezing Rain
4:15 PM 10.4 °F -6.6 °F 3.2 °F 73% 30.13 in 10.0 mi NNW 16.1 mph - N/A   Light Freezing Rain
4:35 PM 8.6 °F -9.5 °F 3.2 °F 79% 30.14 in 10.0 mi NW 17.3 mph - N/A   Light Freezing Rain
4:55 PM 8.6 °F -8.9 °F 3.2 °F 79% 30.15 in 10.0 mi NW 16.1 mph - N/A   Light Freezing Rain
5:15 PM 8.6 °F -9.5 °F 1.4 °F 73% 30.16 in 10.0 mi NW 17.3 mph - N/A   Light Freezing Rain
5:35 PM 6.8 °F -9.3 °F 1.4 °F 79% 30.16 in 10.0 mi NW 12.7 mph - N/A   Light Freezing Rain
5:55 PM 6.8 °F -10.0 °F 1.4 °F 79% 30.17 in 10.0 mi NW 13.8 mph - N/A   Light Freezing Rain
6:15 PM 6.8 °F -10.0 °F 1.4 °F 79% 30.17 in 10.0 mi NW 13.8 mph 20.7 mph N/A   Light Freezing Rain
6:35 PM 6.8 °F -10.7 °F -0.4 °F 72% 30.17 in 10.0 mi NW 15.0 mph - N/A   Light Freezing Rain
6:55 PM 5.0 °F -12.3 °F -0.4 °F 78% 30.17 in 10.0 mi NW 13.8 mph - N/A   Light Freezing Rain
7:15 PM 5.0 °F -12.3 °F -0.4 °F 78% 30.19 in 10.0 mi NW 13.8 mph - N/A   Light Freezing Rain
7:35 PM 5.0 °F -13.0 °F -0.4 °F 78% 30.19 in 10.0 mi NW 15.0 mph - N/A   Light Freezing Rain
7:55 PM 5.0 °F -13.0 °F -0.4 °F 78% 30.21 in 10.0 mi WNW 15.0 mph - N/A   Light Freezing Rain
8:15 PM 5.0 °F -12.3 °F -0.4 °F 78% 30.22 in 10.0 mi WNW 13.8 mph - N/A   Light Freezing Rain
8:35 PM 5.0 °F -13.6 °F -0.4 °F 78% 30.23 in 10.0 mi WNW 16.1 mph - N/A   Light Freezing Rain
8:55 PM 3.2 °F -13.9 °F -0.4 °F 85% 30.23 in 10.0 mi WNW 12.7 mph 18.4 mph N/A   Light Freezing Rain
9:15 PM 3.2 °F -15.3 °F -2.2 °F 78% 30.24 in 10.0 mi WNW 15.0 mph - N/A   Light Freezing Rain
9:35 PM 3.2 °F -15.3 °F -2.2 °F 78% 30.25 in 10.0 mi WNW 15.0 mph - N/A   Light Freezing Rain
9:55 PM 3.2 °F -14.6 °F -2.2 °F 78% 30.26 in 10.0 mi NW 13.8 mph - N/A   Light Freezing Rain
10:15 PM 1.4 °F -14.5 °F -4.0 °F 78% 30.26 in 10.0 mi NW 10.4 mph - N/A   Clear
10:35 PM 1.4 °F -16.1 °F -4.0 °F 78% 30.27 in 10.0 mi WNW 12.7 mph 18.4 mph N/A   Clear
10:55 PM 1.4 °F -14.5 °F -5.8 °F 72% 30.28 in 10.0 mi WNW 10.4 mph - N/A   Clear
11:15 PM -0.4 °F -16.7 °F -5.8 °F 78% 30.28 in 10.0 mi WNW 10.4 mph 16.1 mph N/A   Clear
11:35 PM -0.4 °F -17.6 °F -5.8 °F 78% 30.29 in 10.0 mi West 11.5 mph 17.3 mph N/A   Clear
11:55 PM -0.4 °F -19.9 °F -7.6 °F 72% 30.30 in 10.0 mi WNW 15.0 mph - N/A   Clear